Weather History for Corning, AR

Change the Weather History Date:

Wednesday, December 4, 2013

  Actual Average (KARG) Record (KARG)
Temperature  
Mean Temperature 62 °F -  
Max Temperature 69 °F 50 °F 69 °F (1998)
Min Temperature 55 °F 35 °F 19 °F (2006)
Degree Days  
Heating Degree Days 3    
Growing Degree Days 12 (Base 50)    
Moisture  
Dew Point 58 °F    
Average Humidity 91    
Maximum Humidity 100    
Minimum Humidity 68    
Precipitation  
Precipitation 0.00 in - - ()
Sea Level Pressure  
Sea Level Pressure 29.70 in    
Wind  
Wind Speed 9 mph (SSW)    
Max Wind Speed 24 mph    
Max Gust Speed 32 mph    
Visibility 5 miles    
Events      
Averages and records for this station are not official NWS values.
T = Trace of Precipitation, MM = Missing Value Source: NWS Daily Summary

Daily Weather History Graph

Daily Weather History Graph

Search for Another Location

Airport:

Trip Planner

Search our weather history database for the weather conditions in past years. The results will help you decide how hot, cold, wet, or windy it might be!

Date:

Astronomy

Dec. 04, 2013 Rise Set
Actual Time 6:58 AM CST 4:47 PM CST
Civil Twilight 6:30 AM CST 5:15 PM CST
Nautical Twilight 5:58 AM CST 5:47 PM CST
Astronomical Twilight 5:26 AM CST 6:18 PM CST
Moon 8:27 AM CST (12/4) 6:56 PM CST (12/4)
Length of Visible Light 10h 45m
Length of Day
9h 48m
Waxing Crescent, 4% of the Moon is Illuminated
Dec 4
Waxing Crescent
Dec 9
First Quarter
Dec 17
Full
Dec 25
Last Quarter
Jan 1
New

Hourly Weather History & Observations

Time (CST) Temp. Dew Point Humidity Pressure Visibility Wind Dir Wind Speed Gust Speed Precip Events Conditions
12:15 AM 55.4 °F 55.4 °F 100% 29.68 in 3.0 mi Calm Calm - N/A   Mostly Cloudy
12:35 AM 55.4 °F 55.4 °F 100% 29.67 in 3.0 mi East 4.6 mph - N/A   Overcast
12:55 AM 55.4 °F 55.4 °F 100% 29.67 in 3.0 mi East 5.8 mph - N/A   Overcast
1:15 AM 55.4 °F 55.4 °F 100% 29.67 in 3.0 mi East 5.8 mph - N/A   Overcast
1:35 AM 55.4 °F 55.4 °F 100% 29.66 in 3.0 mi East 5.8 mph - N/A   Overcast
1:55 AM 55.4 °F 55.4 °F 100% 29.66 in 3.0 mi SE 5.8 mph - N/A   Overcast
2:15 AM 57.2 °F 57.2 °F 100% 29.66 in 3.0 mi SE 6.9 mph - N/A   Overcast
2:35 AM 57.2 °F 57.2 °F 100% 29.67 in 2.5 mi SSE 5.8 mph - N/A   Overcast
2:55 AM 55.4 °F 55.4 °F 100% 29.66 in 2.0 mi Calm Calm - N/A   Overcast
3:15 AM 55.4 °F 55.4 °F 100% 29.66 in 1.8 mi SE 3.5 mph - N/A   Overcast
3:35 AM 55.4 °F 55.4 °F 100% 29.66 in 1.8 mi SSE 3.5 mph - N/A   Overcast
3:55 AM 55.4 °F 55.4 °F 100% 29.65 in 1.5 mi SE 5.8 mph - N/A   Overcast
4:15 AM 55.4 °F 55.4 °F 100% 29.65 in 1.5 mi SSE 5.8 mph - N/A   Overcast
4:35 AM 55.4 °F 55.4 °F 100% 29.66 in 2.5 mi SSW 6.9 mph - N/A   Overcast
4:55 AM 57.2 °F 57.2 °F 100% 29.66 in 3.0 mi SSW 10.4 mph - N/A   Overcast
5:15 AM 57.2 °F 57.2 °F 100% 29.68 in 3.0 mi SW 12.7 mph - N/A   Overcast
5:35 AM 57.2 °F 57.2 °F 100% 29.67 in 1.5 mi SSW 10.4 mph - N/A   Overcast
5:55 AM 57.2 °F 57.2 °F 100% 29.68 in 0.8 mi SSW 10.4 mph - N/A   Overcast
6:15 AM 57.2 °F 57.2 °F 100% 29.68 in 1.2 mi SSW 10.4 mph - N/A   Overcast
6:35 AM 57.2 °F 57.2 °F 100% 29.68 in 2.5 mi South 9.2 mph - N/A   Overcast
6:55 AM 57.2 °F 57.2 °F 100% 29.67 in 3.0 mi South 12.7 mph - N/A   Overcast
7:15 AM 57.2 °F 57.2 °F 100% 29.68 in 3.0 mi South 12.7 mph 17.3 mph N/A   Overcast
7:35 AM 59.0 °F 59.0 °F 100% 29.68 in 3.0 mi SSW 13.8 mph - N/A   Overcast
7:55 AM 59.0 °F 59.0 °F 100% 29.68 in 2.5 mi SSW 13.8 mph - N/A   Scattered Clouds
8:15 AM 59.0 °F 59.0 °F 100% 29.68 in 3.0 mi SSW 13.8 mph - N/A   Partly Cloudy
8:35 AM 59.0 °F 59.0 °F 100% 29.70 in 3.0 mi SSW 12.7 mph 17.3 mph N/A   Partly Cloudy
8:55 AM 60.8 °F 60.8 °F 100% 29.69 in 3.0 mi SSW 10.4 mph - N/A   Scattered Clouds
9:15 AM 62.6 °F 62.6 °F 100% 29.70 in 4.0 mi SSW 13.8 mph - N/A   Mostly Cloudy
9:35 AM 62.6 °F 62.6 °F 100% 29.70 in 5.0 mi SSW 12.7 mph 20.7 mph N/A   Mostly Cloudy
9:55 AM 62.6 °F 60.8 °F 94% 29.69 in 5.0 mi SSW 17.3 mph 26.5 mph N/A   Overcast
10:15 AM 64.4 °F 60.8 °F 88% 29.70 in 6.0 mi SSW 21.9 mph 28.8 mph N/A   Overcast
10:35 AM 64.4 °F 60.8 °F 88% 29.69 in 5.0 mi SSW 20.7 mph 28.8 mph N/A   Overcast
10:55 AM 64.4 °F 60.8 °F 88% 29.68 in 7.0 mi SSW 23.0 mph 26.5 mph N/A   Overcast
11:15 AM 64.4 °F 59.0 °F 83% 29.68 in 8.0 mi SSW 17.3 mph 27.6 mph N/A   Mostly Cloudy
11:35 AM 64.4 °F 59.0 °F 83% 29.67 in 8.0 mi SSW 19.6 mph 29.9 mph N/A   Overcast
11:55 AM 64.4 °F 59.0 °F 83% 29.66 in 4.0 mi SSW 24.2 mph 32.2 mph N/A   Haze
12:15 PM 66.2 °F 59.0 °F 78% 29.66 in 4.0 mi SSW 20.7 mph 27.6 mph N/A   Haze
12:35 PM 66.2 °F 59.0 °F 78% 29.67 in 3.0 mi SSW 23.0 mph 27.6 mph N/A   Haze
12:55 PM 66.2 °F 59.0 °F 78% 29.65 in 6.0 mi SSW 20.7 mph 32.2 mph N/A   Haze
1:15 PM 66.2 °F 59.0 °F 78% 29.64 in 5.0 mi SSW 23.0 mph 31.1 mph N/A   Haze
1:35 PM 68.0 °F 59.0 °F 73% 29.64 in 5.0 mi SSW 21.9 mph 27.6 mph N/A   Haze
1:55 PM 68.0 °F 59.0 °F 73% 29.64 in 5.0 mi SSW 23.0 mph 32.2 mph N/A   Haze
2:15 PM 68.0 °F 59.0 °F 73% 29.64 in 6.0 mi SSW 19.6 mph 27.6 mph N/A   Haze
2:35 PM 68.0 °F 60.8 °F 78% 29.64 in 5.0 mi SSW 18.4 mph 28.8 mph N/A   Haze
2:55 PM 69.8 °F 59.0 °F 68% 29.65 in 5.0 mi SSW 20.7 mph 29.9 mph N/A   Haze
3:15 PM 68.0 °F 59.0 °F 73% 29.66 in 5.0 mi SW 16.1 mph - N/A   Haze
3:35 PM 68.0 °F 60.8 °F 78% 29.67 in 5.0 mi SSW 17.3 mph 23.0 mph N/A   Haze
3:55 PM 66.2 °F 60.8 °F 83% 29.68 in 5.0 mi SSW 11.5 mph - N/A   Haze
4:15 PM 66.2 °F 60.8 °F 83% 29.67 in 5.0 mi SSW 13.8 mph - N/A   Haze
4:35 PM 66.2 °F 59.0 °F 78% 29.68 in 5.0 mi SSW 16.1 mph 24.2 mph N/A   Haze
4:55 PM 66.2 °F 59.0 °F 78% 29.68 in 5.0 mi SSW 16.1 mph 20.7 mph N/A   Haze
5:15 PM 64.4 °F 59.0 °F 83% 29.68 in 8.0 mi SSW 13.8 mph - N/A   Clear
5:35 PM 64.4 °F 59.0 °F 83% 29.69 in 7.0 mi SSW 11.5 mph 17.3 mph N/A   Clear
5:55 PM 64.4 °F 59.0 °F 83% 29.70 in 5.0 mi SSW 11.5 mph - N/A   Clear
6:15 PM 62.6 °F 59.0 °F 88% 29.71 in 6.0 mi SSW 10.4 mph - N/A   Clear
6:35 PM 62.6 °F 59.0 °F 88% 29.72 in 5.0 mi SW 9.2 mph - N/A   Clear
6:55 PM 62.6 °F 59.0 °F 88% 29.74 in 10.0 mi SW 10.4 mph - N/A   Clear
7:15 PM 62.6 °F 59.0 °F 88% 29.74 in 10.0 mi SW 9.2 mph - N/A   Scattered Clouds
7:35 PM 60.8 °F 59.0 °F 94% 29.75 in 8.0 mi SW 8.1 mph - N/A   Partly Cloudy
7:55 PM 59.0 °F 59.0 °F 100% 29.75 in 5.0 mi SW 5.8 mph - N/A   Clear
8:15 PM 59.0 °F 57.2 °F 94% 29.75 in 5.0 mi SSW 5.8 mph - N/A   Clear
8:35 PM 60.8 °F 59.0 °F 94% 29.76 in 9.0 mi South 8.1 mph - N/A   Scattered Clouds
8:55 PM 59.0 °F 59.0 °F 100% 29.76 in 9.0 mi SSW 6.9 mph - N/A   Mostly Cloudy
9:15 PM 57.2 °F 57.2 °F 100% 29.77 in 8.0 mi SSW 8.1 mph - N/A   Mostly Cloudy
9:35 PM 59.0 °F 57.2 °F 94% 29.78 in 8.0 mi SSW 8.1 mph - N/A   Mostly Cloudy
9:55 PM 59.0 °F 59.0 °F 100% 29.79 in 6.0 mi WSW 6.9 mph - N/A   Overcast
10:15 PM 59.0 °F 57.2 °F 94% 29.79 in 10.0 mi West 5.8 mph - N/A   Overcast
10:35 PM 59.0 °F 57.2 °F 94% 29.80 in 10.0 mi West 6.9 mph - N/A   Mostly Cloudy
10:55 PM 57.2 °F 55.4 °F 94% 29.80 in 10.0 mi West 5.8 mph - N/A   Mostly Cloudy
11:15 PM 57.2 °F 50.0 °F 77% 29.81 in 10.0 mi NNW 9.2 mph - N/A   Overcast
11:35 PM 57.2 °F 50.0 °F 77% 29.83 in 10.0 mi NW 11.5 mph - N/A   Overcast
11:55 PM 55.4 °F 48.2 °F 77% 29.84 in 10.0 mi NW 10.4 mph - N/A   Overcast